Location: Castellare
(42.4669°N, 9.4728°E)
Time: 14:50:20
(UTC+00:00)

Cosmos 676 Rocket - Pass Details

Date: 17 February 2020
Orbit: 754 x 784 km, 74.0° (Epoch: 27 March)

Event Time Altitude Azimuth Distance (km) Brightness Sun altitude
Rises 05:22:53 0° 199° (SSW) 3,242 7.1 -10.6°
Reaches altitude 10° 05:25:15 10° 199° (SSW) 2,322 6.4 -10.2°
Maximum altitude 05:30:32 87° 287° (WNW) 789 4.0 -9.2°
Drops below altitude 10° 05:35:54 10° 19° (NNE) 2,349 6.7 -8.2°
Sets 05:38:18 0° 20° (NNE) 3,282 7.4 -7.8°
